#timestamp,LO_Frequency,Hit,StdDev 
1643392815.4,286046998.2,N
1643392835.2,286046998.8,N
1643392855.0,286047000.9,N
1643392855.9,286047000.9,N
1643392875.8,286047001.0,N
1643392895.6,286046998.3,N
1643392915.4,286046998.9,N
1643392935.3,286046996.6,Y
1643392955.1,286046999.2,P
1643392975.9,286047000.0,N
1643392995.7,286046998.7,P
1643393015.5,286046999.8,N
1643393035.4,286047000.3,N
1643393055.2,286046998.1,Y
1643393075.1,286047001.1,P
1643393076.0,286047001.1,N
1643393095.8,286046996.5,P
1643393115.6,286047000.7,N
1643393135.5,286047002.8,N
1643393155.3,286047000.5,N
1643393175.2,286046998.1,N
1643393195.9,286047000.1,N
1643393215.7,286047000.2,N
1643393235.6,286047000.6,N
1643393255.4,286047000.9,N
1643393275.2,286047000.6,N
1643393295.1,286047000.1,N
1643393296.0,286047000.1,N
1643393315.8,286047001.6,N
1643393335.7,286047002.7,N
1643393355.5,286047002.3,N
1643393375.4,286047002.4,N
1643393395.2,286046999.7,N
1643393415.0,286047002.6,N
1643393415.9,286047002.6,N
1643393435.8,286047002.2,N
1643393455.6,286047001.7,N
1643393475.4,286047002.4,N
1643393495.3,286047002.8,N
1643393515.1,286046999.8,N
1643393535.9,286047000.4,N
1643393555.7,286047000.6,N
1643393575.5,286047001.1,N
1643393595.4,286046998.5,N
1643393615.2,286047001.2,N
1643393635.1,286047000.5,N
1643393636.0,286047000.5,N
1643393655.8,286047000.8,N
1643393675.6,286047002.8,N
1643393695.5,286047002.3,N
1643393715.3,286047000.2,N
1643393735.1,286047002.8,N
1643393755.9,286047000.2,N
1643393775.7,286047000.4,N
1643393795.6,286047000.4,N
1643393815.4,286046998.5,N
1643393835.2,286047001.1,N
1643393855.1,286047000.8,N
1643393856.0,286047000.8,N
1643393875.8,286047000.3,N
1643393895.7,286047000.0,N
1643393915.5,286047000.2,N
1643393935.3,286047000.6,N
1643393955.2,286047000.4,N
1643393975.0,286046999.9,N
1643393975.9,286046999.9,N
1643393995.7,286047000.2,N
1643394015.6,286047001.1,N
1643394035.4,286046999.7,N
1643394055.3,286046998.4,N
1643394075.1,286046998.9,N
1643394076.0,286046998.9,N
1643394095.8,286046999.6,N
1643394115.7,286047000.8,N
1643394135.5,286046998.5,N
1643394155.3,286046998.6,N
1643394175.2,286046999.6,N
1643394195.0,286046999.5,N
1643394195.9,286046999.5,N
1643394215.8,286046999.4,N
1643394235.6,286046999.0,N
1643394255.4,286046998.8,N
1643394275.3,286046998.2,N
1643394295.1,286047001.2,N
1643394315.9,286046999.4,N
1643394335.7,286046999.1,N
1643394355.5,286047000.2,N
1643394375.4,286046999.2,N
1643394395.2,286047001.0,N
1643394415.0,286047000.6,N
1643394415.9,286047000.6,N
1643394435.8,286047000.9,N
1643394455.6,286047000.6,N
1643394475.5,286047000.4,N
1643394495.3,286047000.8,N
1643394515.1,286046999.3,N
1643394535.9,286046999.3,N
1643394555.7,286046998.2,N
1643394575.5,286047002.4,N
1643394595.4,286047002.0,N
1643394615.2,286047000.0,N
1643394635.0,286047002.1,N
1643394636.0,286047002.1,N
1643394655.8,286047002.2,N
1643394675.6,286047002.8,N
1643394695.5,286047003.4,N
1643394715.3,286047003.4,N
1643394735.2,286047001.7,N
1643394755.9,286047004.1,N
1643394775.7,286047001.7,N
1643394795.6,286046999.7,N
1643394815.4,286047002.6,N
1643394835.2,286047000.4,N
1643394855.1,286046998.1,N
1643394856.0,286046998.1,N
1643394875.8,286047000.2,N
1643394895.7,286046998.2,N
1643394915.5,286047002.7,N
1643394935.3,286047002.7,N
1643394955.2,286047002.5,N
1643394975.0,286047002.3,N
1643394975.9,286047002.3,N
1643394995.7,286047002.7,N
1643395015.6,286047002.1,N
1643395035.4,286047001.5,N
1643395055.3,286047002.2,N
1643395075.1,286047004.4,N
1643395076.0,286047004.4,N
1643395095.8,286047002.0,N
1643395115.7,286047002.2,N
1643395135.5,286047002.7,N
1643395155.3,286047002.0,N
1643395175.2,286047002.3,N
1643395195.0,286046999.8,N
1643395195.9,286046999.8,N
1643395215.8,286047000.0,N
1643395235.6,286047000.7,N
1643395255.4,286046999.0,N
1643395275.3,286046998.6,N
1643395295.1,286047000.9,N
1643395315.9,286046998.3,N
1643395335.7,286047000.5,N
1643395355.5,286047000.2,N
1643395375.4,286047004.0,N
1643395395.2,286047010.4,Y
1643395415.0,286047006.3,P
1643395415.9,286047006.3,N
1643395435.8,286047004.6,N
1643395485.7,286047008.3,E
1643395495.6,286047003.6,N
1643395515.4,286046997.8,P
1643395535.2,286046995.8,N
1643395555.1,286046995.2,N
1643395556.0,286046995.2,N
1643395575.8,286046993.3,N
1643395595.7,286046992.2,N
1643395615.5,286046992.0,N
1643395635.3,286046994.3,N
1643395655.2,286046992.9,N
1643395675.0,286046990.9,N
1643395675.9,286046990.9,N
1643395695.8,286046990.9,N
1643395715.6,286046991.4,N
1643395735.4,286046991.3,N
1643395755.3,286046991.4,N
1643395775.1,286046991.5,N
1643395795.8,286046991.4,N
1643395815.7,286046991.6,N
1643395835.5,286046991.3,N
1643395855.4,286046991.3,N
1643395875.2,286046990.5,Y
1643395895.0,286046997.0,P
1643395895.9,286046997.0,N
1643395915.8,286046998.0,N
1643395935.6,286046999.0,N
1643395955.4,286046999.6,N
1643395975.3,286046999.3,N
1643395995.1,286046998.3,N
1643396015.9,286046997.5,N
1643396035.7,286046997.8,N
1643396055.6,286046997.9,N
1643396075.4,286046996.5,N
1643396095.2,286046998.4,N
1643396115.1,286046998.8,N
1643396116.0,286046998.8,N
1643396135.8,286046999.2,N
1643396155.7,286047000.1,N
1643396175.5,286047002.6,N
1643396195.3,286047000.1,N
1643396215.2,286047000.2,N
1643396235.9,286047002.3,N
1643396255.7,286047000.8,N
1643396275.6,286046998.8,N
1643396295.4,286046999.4,N
1643396315.3,286046996.6,N
1643396335.1,286046998.9,N
1643396355.8,286046999.5,N
1643396375.7,286046999.1,N
1643396395.5,286046999.4,N
